Time,TemperatureF,DewpointF,PressureIn,WindDirection,WindDirectionDegrees,WindSpeedMPH,WindSpeedGustMPH,Humidity,HourlyPrecipIn,Conditions,Clouds,dailyrainin,SoftwareType,DateUTC
2013-06-18 00:01:00,68.2,68.2,29.89,North,356,0.0,0.0,100,0.00,,,0.00,VWS V13.01,2013-06-18 05:01:00,
2013-06-18 00:06:00,68.2,68.2,29.89,NW,310,0.0,0.0,100,0.00,,,0.00,VWS V13.01,2013-06-18 05:06:00,
2013-06-18 00:11:00,68.2,68.2,29.89,WNW,297,0.0,3.1,100,0.00,,,0.00,VWS V13.01,2013-06-18 05:11:00,
2013-06-18 00:16:00,68.2,68.2,29.89,WNW,297,0.0,0.0,100,0.00,,,0.00,VWS V13.01,2013-06-18 05:16:00,
2013-06-18 00:21:00,68.2,68.2,29.89,WNW,297,0.0,0.0,100,0.00,,,0.00,VWS V13.01,2013-06-18 05:21:00,
2013-06-18 00:26:00,68.2,68.2,29.89,WNW,297,0.0,0.0,100,0.00,,,0.00,VWS V13.01,2013-06-18 05:26:00,
2013-06-18 00:31:00,68.2,68.2,29.92,WNW,297,0.0,0.0,100,0.00,,,0.00,VWS V13.01,2013-06-18 05:31:00,
2013-06-18 00:36:00,68.2,68.2,29.92,WNW,297,0.0,0.0,100,0.00,,,0.00,VWS V13.01,2013-06-18 05:36:00,
2013-06-18 00:41:00,68.2,68.2,29.92,WNW,297,0.0,0.0,100,0.00,,,0.00,VWS V13.01,2013-06-18 05:41:00,
2013-06-18 00:46:00,68.2,68.2,29.92,WNW,297,0.0,0.0,100,0.00,,,0.00,VWS V13.01,2013-06-18 05:46:00,
2013-06-18 00:51:00,68.2,68.2,29.92,SSE,168,0.0,2.2,100,0.00,,,0.00,VWS V13.01,2013-06-18 05:51:00,
2013-06-18 00:56:00,68.2,68.2,29.92,WNW,297,0.0,0.0,100,0.00,,,0.00,VWS V13.01,2013-06-18 05:56:00,
2013-06-18 01:00:00,68.3,68.3,29.89,WNW,302,2.2,2.2,100,0.00,,,0.00,VWS V13.01,2013-06-18 06:00:00,
2013-06-18 01:05:00,68.2,68.2,29.89,NW,313,0.0,0.0,100,0.00,,,0.00,VWS V13.01,2013-06-18 06:05:00,
2013-06-18 01:10:00,67.8,67.8,29.89,NW,322,0.0,0.0,100,0.00,,,0.00,VWS V13.01,2013-06-18 06:10:00,
2013-06-18 01:15:00,67.6,67.6,29.89,NW,322,0.0,0.0,100,0.00,,,0.00,VWS V13.01,2013-06-18 06:15:00,
2013-06-18 01:20:00,67.6,67.6,29.89,NW,322,0.0,0.0,100,0.00,,,0.00,VWS V13.01,2013-06-18 06:20:00,
2013-06-18 01:25:00,67.6,67.6,29.89,NW,322,0.0,0.0,100,0.00,,,0.00,VWS V13.01,2013-06-18 06:25:00,
2013-06-18 01:30:00,67.6,67.6,29.89,NW,322,0.0,0.0,100,0.00,,,0.00,VWS V13.01,2013-06-18 06:30:00,
2013-06-18 01:35:00,67.8,67.8,29.89,NW,322,0.0,0.0,100,0.00,,,0.00,VWS V13.01,2013-06-18 06:35:00,
2013-06-18 01:40:00,67.8,67.8,29.89,WNW,295,0.0,0.0,100,0.00,,,0.00,VWS V13.01,2013-06-18 06:40:00,
2013-06-18 01:45:00,67.8,67.8,29.89,West,259,0.0,2.7,100,0.00,,,0.00,VWS V13.01,2013-06-18 06:45:00,
2013-06-18 01:50:00,67.8,67.8,29.89,West,259,0.0,0.0,100,0.00,,,0.00,VWS V13.01,2013-06-18 06:50:00,
2013-06-18 01:55:00,67.8,67.8,29.89,West,259,0.0,0.0,100,0.00,,,0.00,VWS V13.01,2013-06-18 06:55:00,
2013-06-18 02:00:00,67.8,67.8,29.89,West,259,0.0,0.0,100,0.00,,,0.00,VWS V13.01,2013-06-18 07:00:00,
2013-06-18 02:05:00,67.8,67.8,29.89,West,259,0.0,0.0,100,0.00,,,0.00,VWS V13.01,2013-06-18 07:05:00,
2013-06-18 02:10:00,67.6,67.6,29.89,West,259,0.0,0.0,100,0.00,,,0.00,VWS V13.01,2013-06-18 07:10:00,
2013-06-18 02:15:00,67.6,67.6,29.89,West,259,0.0,0.0,100,0.00,,,0.00,VWS V13.01,2013-06-18 07:15:00,
2013-06-18 02:20:00,67.6,67.6,29.89,West,259,0.0,0.0,100,0.00,,,0.00,VWS V13.01,2013-06-18 07:20:00,
2013-06-18 02:25:00,67.4,67.4,29.89,West,259,0.0,0.0,100,0.00,,,0.00,VWS V13.01,2013-06-18 07:25:00,
2013-06-18 02:30:00,67.6,67.6,29.89,West,259,0.0,0.0,100,0.00,,,0.00,VWS V13.01,2013-06-18 07:30:00,
2013-06-18 02:35:00,67.6,67.6,29.89,West,259,0.0,0.0,100,0.00,,,0.00,VWS V13.01,2013-06-18 07:35:00,
2013-06-18 02:40:00,67.4,67.4,29.89,West,259,0.0,0.0,100,0.00,,,0.00,VWS V13.01,2013-06-18 07:40:00,
2013-06-18 02:45:00,67.6,67.6,29.89,West,259,0.0,0.0,100,0.00,,,0.00,VWS V13.01,2013-06-18 07:45:00,
2013-06-18 02:50:00,67.6,67.6,29.89,West,259,0.0,0.0,100,0.00,,,0.00,VWS V13.01,2013-06-18 07:50:00,
2013-06-18 02:55:00,67.4,67.4,29.89,WNW,295,0.0,0.0,100,0.00,,,0.00,VWS V13.01,2013-06-18 07:55:00,
2013-06-18 03:00:00,67.3,67.3,29.86,WNW,295,0.0,0.0,100,0.00,,,0.00,VWS V13.01,2013-06-18 08:00:00,
2013-06-18 03:05:00,67.1,67.1,29.86,WNW,295,0.0,0.0,100,0.00,,,0.00,VWS V13.01,2013-06-18 08:05:00,
2013-06-18 03:10:00,67.1,67.1,29.86,WNW,295,0.0,0.0,100,0.00,,,0.00,VWS V13.01,2013-06-18 08:10:00,
2013-06-18 03:15:00,66.9,66.9,29.86,WNW,295,0.0,0.0,100,0.00,,,0.00,VWS V13.01,2013-06-18 08:15:00,
2013-06-18 03:20:00,66.9,66.9,29.86,WNW,295,0.0,0.0,100,0.00,,,0.00,VWS V13.01,2013-06-18 08:20:00,
2013-06-18 03:25:00,66.9,66.9,29.86,WNW,295,0.0,0.0,100,0.00,,,0.00,VWS V13.01,2013-06-18 08:25:00,
2013-06-18 03:30:00,66.9,66.9,29.86,WNW,295,0.0,0.0,100,0.00,,,0.00,VWS V13.01,2013-06-18 08:30:00,
2013-06-18 03:35:00,66.7,66.7,29.86,WNW,295,0.0,0.0,100,0.00,,,0.00,VWS V13.01,2013-06-18 08:35:00,
2013-06-18 03:40:00,66.5,66.5,29.86,WNW,295,0.0,0.0,100,0.00,,,0.00,VWS V13.01,2013-06-18 08:40:00,
2013-06-18 03:45:00,66.5,66.5,29.86,NNW,348,0.0,0.0,100,0.00,,,0.00,VWS V13.01,2013-06-18 08:45:00,
2013-06-18 03:50:00,66.4,66.4,29.86,NNW,348,0.0,0.0,100,0.00,,,0.00,VWS V13.01,2013-06-18 08:50:00,
2013-06-18 03:55:00,66.2,66.2,29.86,NNW,348,0.0,0.0,100,0.00,,,0.00,VWS V13.01,2013-06-18 08:55:00,
2013-06-18 04:00:00,66.2,66.2,29.89,NNW,348,0.0,0.0,100,0.00,,,0.00,VWS V13.01,2013-06-18 09:00:00,
2013-06-18 04:05:00,66.2,66.2,29.89,NNW,348,0.0,0.0,100,0.00,,,0.00,VWS V13.01,2013-06-18 09:05:00,
2013-06-18 04:10:00,66.0,66.0,29.89,NNW,348,0.0,0.0,100,0.00,,,0.00,VWS V13.01,2013-06-18 09:10:00,
2013-06-18 04:15:00,65.8,65.8,29.89,NNW,348,0.0,0.0,100,0.00,,,0.00,VWS V13.01,2013-06-18 09:15:00,
2013-06-18 04:20:00,65.6,65.6,29.89,NNW,348,0.0,0.0,100,0.00,,,0.00,VWS V13.01,2013-06-18 09:20:00,
2013-06-18 04:25:00,65.6,65.6,29.89,NNW,348,0.0,0.0,100,0.00,,,0.00,VWS V13.01,2013-06-18 09:25:00,
2013-06-18 04:30:00,65.5,65.5,29.89,NNW,348,0.0,0.0,100,0.00,,,0.00,VWS V13.01,2013-06-18 09:30:00,
2013-06-18 04:35:00,65.5,65.5,29.89,NNW,348,0.0,0.0,100,0.00,,,0.00,VWS V13.01,2013-06-18 09:35:00,
2013-06-18 04:40:00,65.5,65.5,29.89,NNW,348,0.0,0.0,100,0.00,,,0.00,VWS V13.01,2013-06-18 09:40:00,
2013-06-18 04:45:00,65.3,65.3,29.89,NNW,348,0.0,0.0,100,0.00,,,0.00,VWS V13.01,2013-06-18 09:45:00,
2013-06-18 04:50:00,65.1,65.1,29.89,NNW,348,0.0,0.0,100,0.00,,,0.00,VWS V13.01,2013-06-18 09:50:00,
2013-06-18 04:55:00,64.9,64.9,29.89,NNW,348,0.0,0.0,100,0.00,,,0.00,VWS V13.01,2013-06-18 09:55:00,
2013-06-18 05:00:00,64.7,64.7,29.89,North,354,0.0,0.0,100,0.00,,,0.00,VWS V13.01,2013-06-18 10:00:00,
2013-06-18 05:05:00,64.7,64.7,29.89,North,354,0.0,0.0,100,0.00,,,0.00,VWS V13.01,2013-06-18 10:05:00,
2013-06-18 05:10:00,64.6,64.6,29.89,North,354,0.0,0.0,100,0.00,,,0.00,VWS V13.01,2013-06-18 10:10:00,
2013-06-18 05:15:00,64.4,64.4,29.89,North,354,0.0,0.0,100,0.00,,,0.00,VWS V13.01,2013-06-18 10:15:00,
2013-06-18 05:20:00,64.4,64.4,29.89,North,354,0.0,0.0,100,0.00,,,0.00,VWS V13.01,2013-06-18 10:20:00,
2013-06-18 05:25:00,64.2,64.2,29.89,North,354,0.0,0.0,100,0.00,,,0.00,VWS V13.01,2013-06-18 10:25:00,
2013-06-18 05:30:00,64.2,64.2,29.89,North,354,0.0,0.0,100,0.00,,,0.00,VWS V13.01,2013-06-18 10:30:00,
2013-06-18 05:35:00,64.0,64.0,29.89,North,354,0.0,0.0,100,0.00,,,0.00,VWS V13.01,2013-06-18 10:35:00,
2013-06-18 05:40:00,64.0,64.0,29.89,North,354,0.0,0.0,100,0.00,,,0.00,VWS V13.01,2013-06-18 10:40:00,
2013-06-18 05:45:00,64.2,64.2,29.89,North,354,0.0,0.0,100,0.00,,,0.00,VWS V13.01,2013-06-18 10:45:00,
2013-06-18 05:50:00,64.0,64.0,29.89,North,354,0.0,0.0,100,0.00,,,0.00,VWS V13.01,2013-06-18 10:50:00,
2013-06-18 05:55:00,64.0,64.0,29.89,North,354,0.0,0.0,100,0.00,,,0.00,VWS V13.01,2013-06-18 10:55:00,
2013-06-18 06:00:00,63.8,63.8,29.89,North,354,0.0,0.0,100,0.00,,,0.04,VWS V13.01,2013-06-18 11:00:00,
2013-06-18 06:05:00,63.8,63.8,29.89,North,354,0.0,0.0,100,0.00,,,0.00,VWS V13.01,2013-06-18 11:05:00,
2013-06-18 06:10:00,63.8,63.8,29.89,North,354,0.0,0.0,100,0.00,,,0.00,VWS V13.01,2013-06-18 11:10:00,
2013-06-18 06:15:00,63.8,63.8,29.89,North,354,0.0,0.0,100,0.00,,,0.00,VWS V13.01,2013-06-18 11:15:00,
2013-06-18 06:20:00,63.8,63.8,29.89,North,354,0.0,0.0,100,0.00,,,0.00,VWS V13.01,2013-06-18 11:20:00,
2013-06-18 06:25:00,63.8,63.8,29.89,North,354,0.0,0.0,100,0.00,,,0.00,VWS V13.01,2013-06-18 11:25:00,
2013-06-18 06:30:00,63.8,63.8,29.89,North,354,0.0,0.0,100,0.00,,,0.00,VWS V13.01,2013-06-18 11:30:00,
2013-06-18 06:35:00,63.8,63.8,29.89,North,354,0.0,0.0,100,0.00,,,0.00,VWS V13.01,2013-06-18 11:35:00,
2013-06-18 06:40:00,64.0,64.0,29.89,North,354,0.0,0.0,100,0.00,,,0.00,VWS V13.01,2013-06-18 11:40:00,
2013-06-18 06:45:00,64.0,64.0,29.92,North,354,0.0,0.0,100,0.00,,,0.00,VWS V13.01,2013-06-18 11:45:00,
2013-06-18 06:50:00,64.0,64.0,29.92,North,354,0.0,0.0,100,0.00,,,0.00,VWS V13.01,2013-06-18 11:50:00,
2013-06-18 06:55:00,64.2,64.2,29.92,North,354,0.0,0.0,100,0.00,,,0.00,VWS V13.01,2013-06-18 11:55:00,
2013-06-18 07:00:00,64.4,64.4,29.92,North,354,0.0,0.0,100,0.00,,,0.00,VWS V13.01,2013-06-18 12:00:00,
2013-06-18 07:04:00,64.6,64.6,29.92,North,354,0.0,0.0,100,0.00,,,0.00,VWS V13.01,2013-06-18 12:04:00,
2013-06-18 07:09:00,64.6,64.6,29.92,North,354,0.0,0.0,100,0.00,,,0.00,VWS V13.01,2013-06-18 12:09:00,
2013-06-18 07:14:00,64.9,64.9,29.92,North,354,0.0,0.0,100,0.00,,,0.00,VWS V13.01,2013-06-18 12:14:00,
2013-06-18 07:19:00,65.1,65.1,29.92,North,354,0.0,0.0,100,0.00,,,0.00,VWS V13.01,2013-06-18 12:19:00,
2013-06-18 07:24:00,65.3,65.3,29.92,North,354,0.0,0.0,100,0.00,,,0.00,VWS V13.01,2013-06-18 12:24:00,
2013-06-18 07:29:00,65.6,65.6,29.92,North,355,0.0,0.0,100,0.00,,,0.00,VWS V13.01,2013-06-18 12:29:00,
2013-06-18 07:34:00,66.0,66.0,29.92,North,355,0.0,0.0,100,0.00,,,0.00,VWS V13.01,2013-06-18 12:34:00,
2013-06-18 07:39:00,66.4,66.4,29.92,SE,143,0.0,0.0,100,0.00,,,0.00,VWS V13.01,2013-06-18 12:39:00,
2013-06-18 07:44:00,66.5,66.5,29.95,South,170,0.0,0.0,100,0.00,,,0.00,VWS V13.01,2013-06-18 12:44:00,
2013-06-18 07:49:00,66.7,66.7,29.95,ESE,117,2.2,2.7,100,0.00,,,0.00,VWS V13.01,2013-06-18 12:49:00,
2013-06-18 07:54:00,67.1,67.1,29.95,SE,127,2.7,2.7,100,0.00,,,0.00,VWS V13.01,2013-06-18 12:54:00,
2013-06-18 07:59:00,67.4,67.4,29.95,SSE,161,0.0,0.0,100,0.00,,,0.00,VWS V13.01,2013-06-18 12:59:00,
2013-06-18 08:04:00,67.6,67.6,29.95,SE,135,0.0,0.0,100,0.00,,,0.00,VWS V13.01,2013-06-18 13:04:00,
2013-06-18 08:09:00,68.0,68.0,29.95,ESE,122,0.0,0.0,100,0.00,,,0.00,VWS V13.01,2013-06-18 13:09:00,
2013-06-18 08:14:00,68.7,68.7,29.95,ESE,118,0.0,0.0,100,0.00,,,0.00,VWS V13.01,2013-06-18 13:14:00,
2013-06-18 08:19:00,69.4,69.4,29.95,ESE,120,0.0,0.0,100,0.00,,,0.00,VWS V13.01,2013-06-18 13:19:00,
2013-06-18 08:24:00,69.6,69.6,29.95,ESE,115,0.0,0.0,100,0.00,,,0.00,VWS V13.01,2013-06-18 13:24:00,
2013-06-18 08:29:00,69.8,68.9,29.95,ESE,117,0.0,0.0,97,0.00,,,0.00,VWS V13.01,2013-06-18 13:29:00,
2013-06-18 08:34:00,70.0,66.9,29.95,East,82,0.0,0.0,90,0.00,,,0.00,VWS V13.01,2013-06-18 13:34:00,
2013-06-18 08:39:00,70.1,62.6,29.95,WNW,299,0.0,0.0,77,0.00,,,0.00,VWS V13.01,2013-06-18 13:39:00,
2013-06-18 08:44:00,70.7,64.2,29.95,West,271,0.0,0.0,80,0.00,,,0.00,VWS V13.01,2013-06-18 13:44:00,
2013-06-18 08:49:00,71.0,62.0,29.95,North,356,2.7,2.7,73,0.00,,,0.00,VWS V13.01,2013-06-18 13:49:00,
2013-06-18 08:54:00,71.4,63.5,29.95,NNW,334,0.0,0.0,76,0.00,,,0.00,VWS V13.01,2013-06-18 13:54:00,
2013-06-18 08:59:00,71.6,62.1,29.98,NE,49,2.7,3.1,72,0.00,,,0.00,VWS V13.01,2013-06-18 13:59:00,
2013-06-18 09:04:00,71.9,62.0,29.98,North,359,2.7,2.7,71,0.00,,,0.00,VWS V13.01,2013-06-18 14:04:00,
2013-06-18 09:09:00,72.3,62.4,29.98,ENE,77,3.1,3.1,71,0.00,,,0.00,VWS V13.01,2013-06-18 14:09:00,
2013-06-18 09:14:00,72.1,62.6,29.98,ENE,74,3.6,4.0,72,0.00,,,0.00,VWS V13.01,2013-06-18 14:14:00,
2013-06-18 09:19:00,72.3,62.8,29.98,NE,50,2.2,3.1,72,0.00,,,0.00,VWS V13.01,2013-06-18 14:19:00,
2013-06-18 09:24:00,72.8,62.9,29.98,NNE,19,2.7,2.7,71,0.00,,,0.00,VWS V13.01,2013-06-18 14:24:00,
2013-06-18 09:29:00,72.8,64.1,29.98,East,92,3.6,3.6,74,0.00,,,0.00,VWS V13.01,2013-06-18 14:29:00,
2013-06-18 09:34:00,73.0,63.1,29.98,NW,308,2.7,3.6,71,0.00,,,0.00,VWS V13.01,2013-06-18 14:34:00,
2013-06-18 09:39:00,73.0,62.7,29.98,North,354,2.7,3.1,70,0.00,,,0.00,VWS V13.01,2013-06-18 14:39:00,
2013-06-18 09:44:00,73.6,62.4,29.98,NW,305,2.2,2.7,68,0.00,,,0.00,VWS V13.01,2013-06-18 14:44:00,
2013-06-18 09:49:00,73.9,63.1,29.98,NE,36,2.2,3.1,69,0.00,,,0.00,VWS V13.01,2013-06-18 14:49:00,
2013-06-18 09:54:00,74.5,62.8,29.98,NNW,329,3.1,3.1,67,0.00,,,0.00,VWS V13.01,2013-06-18 14:54:00,
2013-06-18 09:59:00,73.9,63.1,29.98,ENE,77,0.0,3.6,69,0.00,,,0.00,VWS V13.01,2013-06-18 14:59:00,
2013-06-18 10:04:00,74.8,64.4,29.98,ESE,104,4.0,4.0,70,0.00,,,0.00,VWS V13.01,2013-06-18 15:04:00,
2013-06-18 10:09:00,75.2,62.6,29.98,ESE,105,2.7,2.7,65,0.00,,,0.00,VWS V13.01,2013-06-18 15:09:00,
2013-06-18 10:14:00,75.5,63.0,29.98,SE,126,2.7,2.7,65,0.00,,,0.00,VWS V13.01,2013-06-18 15:14:00,
2013-06-18 10:19:00,75.5,62.5,29.98,ENE,65,2.7,2.7,64,0.00,,,0.00,VWS V13.01,2013-06-18 15:19:00,
2013-06-18 10:24:00,75.7,62.2,29.98,NE,47,3.6,3.6,63,0.00,,,0.00,VWS V13.01,2013-06-18 15:24:00,
2013-06-18 10:29:00,76.1,62.6,29.98,North,352,2.7,3.1,63,0.00,,,0.00,VWS V13.01,2013-06-18 15:29:00,
2013-06-18 10:34:00,76.8,62.8,29.98,NNE,31,4.9,4.9,62,0.00,,,0.00,VWS V13.01,2013-06-18 15:34:00,
2013-06-18 10:39:00,77.2,63.6,29.98,SW,220,2.7,4.0,63,0.00,,,0.00,VWS V13.01,2013-06-18 15:39:00,
2013-06-18 10:44:00,77.3,62.4,29.95,NNE,27,4.0,6.3,60,0.00,,,0.00,VWS V13.01,2013-06-18 15:44:00,
2013-06-18 10:49:00,78.1,63.1,29.95,ENE,67,2.7,2.7,60,0.00,,,0.00,VWS V13.01,2013-06-18 15:49:00,
2013-06-18 10:54:00,78.2,61.8,29.95,ENE,63,0.0,3.6,57,0.00,,,0.00,VWS V13.01,2013-06-18 15:54:00,
2013-06-18 10:59:00,78.2,61.3,29.95,NNE,26,3.6,3.6,56,0.00,,,0.00,VWS V13.01,2013-06-18 15:59:00,
2013-06-18 11:04:00,78.4,63.4,29.95,East,90,3.1,3.1,60,0.00,,,0.00,VWS V13.01,2013-06-18 16:04:00,
2013-06-18 11:09:00,78.2,63.2,29.95,South,186,2.7,2.7,60,0.00,,,0.00,VWS V13.01,2013-06-18 16:09:00,
2013-06-18 11:14:00,78.6,63.6,29.95,ESE,114,3.1,3.1,60,0.00,,,0.00,VWS V13.01,2013-06-18 16:14:00,
2013-06-18 11:19:00,79.3,61.8,29.95,East,84,0.0,3.6,55,0.00,,,0.00,VWS V13.01,2013-06-18 16:19:00,
2013-06-18 11:24:00,79.7,62.1,29.95,North,5,0.0,2.2,55,0.00,,,0.00,VWS V13.01,2013-06-18 16:24:00,
2013-06-18 11:29:00,80.2,62.1,29.98,NNW,339,0.0,0.0,54,0.00,,,0.00,VWS V13.01,2013-06-18 16:29:00,
2013-06-18 11:34:00,80.9,61.7,29.98,NNW,332,2.7,3.6,52,0.00,,,0.00,VWS V13.01,2013-06-18 16:34:00,
2013-06-18 11:39:00,80.9,61.1,29.98,East,93,2.7,7.6,51,0.00,,,0.00,VWS V13.01,2013-06-18 16:39:00,
2013-06-18 11:44:00,80.0,61.4,29.98,South,188,2.7,3.1,53,0.00,,,0.00,VWS V13.01,2013-06-18 16:44:00,
2013-06-18 11:49:00,80.0,61.9,29.98,NW,305,0.0,0.0,54,0.00,,,0.00,VWS V13.01,2013-06-18 16:49:00,
2013-06-18 11:54:00,80.9,62.2,29.98,East,79,3.1,4.0,53,0.00,,,0.00,VWS V13.01,2013-06-18 16:54:00,
2013-06-18 11:59:00,81.5,62.7,29.95,NE,45,2.2,4.9,53,0.00,,,0.00,VWS V13.01,2013-06-18 16:59:00,
2013-06-18 12:04:00,82.2,61.2,29.95,NE,34,3.6,3.6,49,0.00,,,0.00,VWS V13.01,2013-06-18 17:04:00,
2013-06-18 12:09:00,82.6,61.5,29.95,North,2,2.7,5.8,49,0.00,,,0.00,VWS V13.01,2013-06-18 17:09:00,
2013-06-18 12:14:00,83.8,63.2,29.98,NE,38,4.0,4.0,50,0.00,,,0.00,VWS V13.01,2013-06-18 17:14:00,
2013-06-18 12:19:00,83.8,63.8,29.98,SE,136,4.9,5.4,51,0.00,,,0.00,VWS V13.01,2013-06-18 17:19:00,
2013-06-18 12:24:00,82.7,62.2,29.98,SSE,150,3.1,4.0,50,0.00,,,0.00,VWS V13.01,2013-06-18 17:24:00,
2013-06-18 12:29:00,82.6,61.5,29.98,ENE,66,3.1,4.0,49,0.00,,,0.00,VWS V13.01,2013-06-18 17:29:00,
2013-06-18 12:34:00,82.9,62.4,29.98,South,175,2.7,5.8,50,0.00,,,0.00,VWS V13.01,2013-06-18 17:34:00,
2013-06-18 12:39:00,82.6,63.7,29.98,SSE,164,4.0,5.4,53,0.00,,,0.00,VWS V13.01,2013-06-18 17:39:00,
2013-06-18 12:44:00,82.2,65.0,29.98,SSW,197,0.0,3.1,56,0.00,,,0.00,VWS V13.01,2013-06-18 17:44:00,
2013-06-18 12:49:00,82.7,63.9,29.98,West,273,3.1,3.6,53,0.00,,,0.00,VWS V13.01,2013-06-18 17:49:00,
2013-06-18 12:54:00,83.6,63.0,29.98,ESE,114,0.0,0.0,50,0.00,,,0.00,VWS V13.01,2013-06-18 17:54:00,
2013-06-18 12:59:00,82.9,64.1,29.98,ESE,117,4.0,4.9,53,0.00,,,0.00,VWS V13.01,2013-06-18 17:59:00,
2013-06-18 13:04:00,82.0,62.7,29.98,ESE,112,3.6,4.0,52,0.00,,,0.00,VWS V13.01,2013-06-18 18:04:00,
2013-06-18 13:09:00,81.3,62.5,29.98,SSW,194,5.4,5.4,53,0.00,,,0.00,VWS V13.01,2013-06-18 18:09:00,
2013-06-18 13:14:00,80.9,62.2,29.95,SE,132,3.1,4.0,53,0.00,,,0.00,VWS V13.01,2013-06-18 18:14:00,
2013-06-18 13:19:00,80.9,62.2,29.95,SSE,159,2.2,2.7,53,0.00,,,0.00,VWS V13.01,2013-06-18 18:19:00,
2013-06-18 13:24:00,81.5,61.6,29.95,South,180,2.2,6.3,51,0.00,,,0.00,VWS V13.01,2013-06-18 18:24:00,
2013-06-18 13:29:00,81.5,61.1,29.95,SSE,164,3.1,3.1,50,0.00,,,0.00,VWS V13.01,2013-06-18 18:29:00,
2013-06-18 13:34:00,81.7,61.2,29.95,SW,214,2.2,3.1,50,0.00,,,0.00,VWS V13.01,2013-06-18 18:34:00,
2013-06-18 13:39:00,81.7,61.2,29.95,WSW,251,2.7,3.6,50,0.00,,,0.00,VWS V13.01,2013-06-18 18:39:00,
2013-06-18 13:44:00,82.2,61.7,29.95,SSW,208,0.0,0.0,50,0.00,,,0.00,VWS V13.01,2013-06-18 18:44:00,
2013-06-18 13:48:00,83.5,62.9,29.95,North,357,2.2,3.6,50,0.00,,,0.00,VWS V13.01,2013-06-18 18:48:00,
2013-06-18 13:53:00,84.5,63.3,29.95,East,91,2.2,3.1,49,0.00,,,0.00,VWS V13.01,2013-06-18 18:53:00,
2013-06-18 13:58:00,85.1,63.8,29.95,South,181,4.9,5.8,49,0.00,,,0.00,VWS V13.01,2013-06-18 18:58:00,
2013-06-18 14:03:00,84.4,63.7,29.95,ESE,123,3.1,3.1,50,0.00,,,0.00,VWS V13.01,2013-06-18 19:03:00,
2013-06-18 14:08:00,84.0,63.4,29.95,ENE,76,0.0,2.7,50,0.00,,,0.00,VWS V13.01,2013-06-18 19:08:00,
2013-06-18 14:13:00,84.0,62.8,29.95,NNE,30,3.6,4.0,49,0.00,,,0.00,VWS V13.01,2013-06-18 19:13:00,
2013-06-18 14:18:00,83.3,62.7,29.95,NNW,347,2.2,3.1,50,0.00,,,0.00,VWS V13.01,2013-06-18 19:18:00,
2013-06-18 14:23:00,83.6,63.0,29.95,East,91,2.2,3.1,50,0.00,,,0.00,VWS V13.01,2013-06-18 19:23:00,
2013-06-18 14:28:00,84.2,63.5,29.95,WSW,246,2.7,3.6,50,0.00,,,0.00,VWS V13.01,2013-06-18 19:28:00,
2013-06-18 14:33:00,84.5,63.3,29.95,SE,132,2.7,4.0,49,0.00,,,0.00,VWS V13.01,2013-06-18 19:33:00,
2013-06-18 14:38:00,84.5,63.3,29.95,ENE,67,0.0,0.0,49,0.00,,,0.00,VWS V13.01,2013-06-18 19:38:00,
2013-06-18 14:43:00,84.4,63.1,29.95,ENE,70,2.2,3.6,49,0.00,,,0.00,VWS V13.01,2013-06-18 19:43:00,
2013-06-18 14:48:00,84.5,62.7,29.95,NE,52,2.7,2.7,48,0.00,,,0.00,VWS V13.01,2013-06-18 19:48:00,
2013-06-18 14:53:00,84.5,62.7,29.95,East,93,2.2,3.1,48,0.00,,,0.00,VWS V13.01,2013-06-18 19:53:00,
2013-06-18 14:58:00,84.5,62.7,29.92,North,2,4.9,4.9,48,0.00,,,0.00,VWS V13.01,2013-06-18 19:58:00,
2013-06-18 15:03:00,84.7,62.9,29.92,NE,52,3.1,3.1,48,0.00,,,0.00,VWS V13.01,2013-06-18 20:03:00,
2013-06-18 15:08:00,84.9,63.0,29.92,NNE,12,0.0,2.2,48,0.00,,,0.00,VWS V13.01,2013-06-18 20:08:00,
2013-06-18 15:13:00,85.3,64.0,29.92,NNE,24,2.7,2.7,49,0.00,,,0.00,VWS V13.01,2013-06-18 20:13:00,
2013-06-18 15:18:00,85.6,61.9,29.92,NNW,337,2.2,2.7,45,0.00,,,0.00,VWS V13.01,2013-06-18 20:18:00,
2013-06-18 15:23:00,85.8,63.9,29.92,East,84,3.1,3.1,48,0.00,,,0.00,VWS V13.01,2013-06-18 20:23:00,
2013-06-18 15:28:00,85.1,61.4,29.92,SSE,153,0.0,2.7,45,0.00,,,0.00,VWS V13.01,2013-06-18 20:28:00,
2013-06-18 15:33:00,85.1,60.7,29.95,North,10,3.6,3.6,44,0.00,,,0.00,VWS V13.01,2013-06-18 20:33:00,
2013-06-18 15:38:00,84.9,62.4,29.95,ENE,76,0.0,0.0,47,0.00,,,0.00,VWS V13.01,2013-06-18 20:38:00,
2013-06-18 15:43:00,84.4,62.5,29.95,ESE,123,3.1,3.1,48,0.00,,,0.00,VWS V13.01,2013-06-18 20:43:00,
2013-06-18 15:48:00,83.6,63.0,29.95,South,177,2.7,3.1,50,0.00,,,0.00,VWS V13.01,2013-06-18 20:48:00,
2013-06-18 15:53:00,83.1,63.1,29.95,SE,129,0.0,0.0,51,0.00,,,0.00,VWS V13.01,2013-06-18 20:53:00,
2013-06-18 15:58:00,83.3,63.3,29.95,SE,129,0.0,0.0,51,0.00,,,0.00,VWS V13.01,2013-06-18 20:58:00,
2013-06-18 16:03:00,83.5,63.5,29.95,SE,129,0.0,0.0,51,0.00,,,0.00,VWS V13.01,2013-06-18 21:03:00,
2013-06-18 16:08:00,84.0,62.8,29.95,North,356,0.0,0.0,49,0.00,,,0.00,VWS V13.01,2013-06-18 21:08:00,
2013-06-18 16:13:00,84.5,63.3,29.95,NNE,29,0.0,0.0,49,0.00,,,0.00,VWS V13.01,2013-06-18 21:13:00,
2013-06-18 16:18:00,84.9,63.6,29.95,NNW,338,2.2,4.0,49,0.00,,,0.00,VWS V13.01,2013-06-18 21:18:00,
2013-06-18 16:23:00,85.3,64.0,29.95,NNE,16,2.2,2.2,49,0.00,,,0.00,VWS V13.01,2013-06-18 21:23:00,
2013-06-18 16:28:00,85.4,63.5,29.92,North,3,2.7,2.7,48,0.00,,,0.00,VWS V13.01,2013-06-18 21:28:00,
2013-06-18 16:33:00,85.6,63.7,29.92,NE,34,3.6,3.6,48,0.00,,,0.00,VWS V13.01,2013-06-18 21:33:00,
2013-06-18 16:38:00,85.3,63.4,29.92,NNW,340,2.7,2.7,48,0.00,,,0.00,VWS V13.01,2013-06-18 21:38:00,
2013-06-18 16:43:00,85.1,63.2,29.92,NNE,21,3.1,3.1,48,0.00,,,0.00,VWS V13.01,2013-06-18 21:43:00,
2013-06-18 16:48:00,85.3,64.0,29.92,North,5,3.1,3.1,49,0.00,,,0.00,VWS V13.01,2013-06-18 21:48:00,
2013-06-18 16:53:00,85.4,62.9,29.92,NE,45,3.1,3.1,47,0.00,,,0.00,VWS V13.01,2013-06-18 21:53:00,
2013-06-18 16:58:00,85.1,63.2,29.92,NE,51,4.0,4.0,48,0.00,,,0.00,VWS V13.01,2013-06-18 21:58:00,
2013-06-18 17:03:00,85.4,64.1,29.92,North,353,2.2,2.2,49,0.00,,,0.00,VWS V13.01,2013-06-18 22:03:00,
2013-06-18 17:08:00,85.8,63.9,29.92,NW,314,2.7,3.1,48,0.00,,,0.00,VWS V13.01,2013-06-18 22:08:00,
2013-06-18 17:13:00,85.8,63.3,29.92,NE,43,4.9,4.9,47,0.00,,,0.00,VWS V13.01,2013-06-18 22:13:00,
2013-06-18 17:18:00,85.8,63.9,29.92,NE,47,2.2,2.2,48,0.00,,,0.00,VWS V13.01,2013-06-18 22:18:00,
2013-06-18 17:23:00,85.8,63.9,29.92,East,95,4.0,4.9,48,0.00,,,0.00,VWS V13.01,2013-06-18 22:23:00,
2013-06-18 17:28:00,84.7,63.5,29.92,South,174,3.6,4.0,49,0.00,,,0.00,VWS V13.01,2013-06-18 22:28:00,
2013-06-18 17:33:00,83.8,62.6,29.92,South,180,2.7,3.1,49,0.00,,,0.00,VWS V13.01,2013-06-18 22:33:00,
2013-06-18 17:38:00,83.1,62.0,29.92,SE,131,0.0,2.2,49,0.00,,,0.00,VWS V13.01,2013-06-18 22:38:00,
2013-06-18 17:43:00,83.3,63.3,29.92,SSE,162,2.7,2.7,51,0.00,,,0.00,VWS V13.01,2013-06-18 22:43:00,
2013-06-18 17:48:00,83.1,63.7,29.92,SSW,192,2.2,2.7,52,0.00,,,0.00,VWS V13.01,2013-06-18 22:48:00,
2013-06-18 17:53:00,82.7,63.3,29.92,South,184,0.0,3.1,52,0.00,,,0.00,VWS V13.01,2013-06-18 22:53:00,
2013-06-18 17:58:00,82.6,63.2,29.92,South,173,0.0,0.0,52,0.00,,,0.00,VWS V13.01,2013-06-18 22:58:00,
2013-06-18 18:03:00,82.7,63.3,29.92,South,173,0.0,0.0,52,0.00,,,0.00,VWS V13.01,2013-06-18 23:03:00,
2013-06-18 18:08:00,82.4,62.5,29.92,South,173,0.0,0.0,51,0.00,,,0.00,VWS V13.01,2013-06-18 23:08:00,
2013-06-18 18:13:00,82.7,63.3,29.92,South,173,0.0,0.0,52,0.00,,,0.00,VWS V13.01,2013-06-18 23:13:00,
2013-06-18 18:18:00,83.1,64.2,29.92,ESE,109,0.0,0.0,53,0.00,,,0.00,VWS V13.01,2013-06-18 23:18:00,
2013-06-18 18:23:00,83.3,64.4,29.92,ESE,117,2.2,2.7,53,0.00,,,0.00,VWS V13.01,2013-06-18 23:23:00,
2013-06-18 18:28:00,83.3,63.3,29.92,SE,130,2.7,2.7,51,0.00,,,0.00,VWS V13.01,2013-06-18 23:28:00,
2013-06-18 18:33:00,82.9,62.4,29.92,South,171,2.7,2.7,50,0.00,,,0.00,VWS V13.01,2013-06-18 23:33:00,
2013-06-18 18:38:00,82.7,62.2,29.92,SSE,150,0.0,0.0,50,0.00,,,0.00,VWS V13.01,2013-06-18 23:38:00,
2013-06-18 18:43:00,82.9,62.4,29.92,SSE,150,0.0,0.0,50,0.00,,,0.00,VWS V13.01,2013-06-18 23:43:00,
2013-06-18 18:48:00,83.1,63.1,29.92,SSE,150,0.0,0.0,51,0.00,,,0.00,VWS V13.01,2013-06-18 23:48:00,
2013-06-18 18:53:00,82.6,62.6,29.92,SSE,150,0.0,0.0,51,0.00,,,0.00,VWS V13.01,2013-06-18 23:53:00,
2013-06-18 18:58:00,82.2,62.3,29.92,SSE,150,0.0,0.0,51,0.00,,,0.00,VWS V13.01,2013-06-18 23:58:00,
2013-06-18 19:03:00,82.0,63.2,29.89,SSE,150,0.0,0.0,53,0.00,,,0.00,VWS V13.01,2013-06-19 00:03:00,
2013-06-18 19:08:00,82.0,63.2,29.89,SSE,150,0.0,0.0,53,0.00,,,0.00,VWS V13.01,2013-06-19 00:08:00,
2013-06-18 19:13:00,82.0,62.1,29.89,SSE,150,0.0,0.0,51,0.00,,,0.00,VWS V13.01,2013-06-19 00:13:00,
2013-06-18 19:18:00,82.4,64.6,29.92,SSE,150,0.0,0.0,55,0.00,,,0.00,VWS V13.01,2013-06-19 00:18:00,
2013-06-18 19:23:00,82.4,64.6,29.92,SSE,150,0.0,0.0,55,0.00,,,0.00,VWS V13.01,2013-06-19 00:23:00,
2013-06-18 19:28:00,82.2,63.4,29.92,SSE,150,0.0,0.0,53,0.00,,,0.00,VWS V13.01,2013-06-19 00:28:00,
2013-06-18 19:33:00,82.4,64.1,29.92,SSE,150,0.0,0.0,54,0.00,,,0.00,VWS V13.01,2013-06-19 00:33:00,
2013-06-18 19:38:00,82.2,63.4,29.92,NE,36,0.0,0.0,53,0.00,,,0.00,VWS V13.01,2013-06-19 00:38:00,
2013-06-18 19:43:00,82.0,63.8,29.92,NE,34,2.2,2.2,54,0.00,,,0.00,VWS V13.01,2013-06-19 00:43:00,
2013-06-18 19:48:00,81.7,63.9,29.92,NNE,33,0.0,0.0,55,0.00,,,0.00,VWS V13.01,2013-06-19 00:48:00,
2013-06-18 19:53:00,81.3,64.1,29.92,North,2,0.0,2.7,56,0.00,,,0.00,VWS V13.01,2013-06-19 00:53:00,
2013-06-18 19:58:00,80.9,64.3,29.92,North,2,2.2,2.7,57,0.00,,,0.00,VWS V13.01,2013-06-19 00:58:00,
2013-06-18 20:03:00,80.6,64.9,29.95,North,6,0.0,2.2,59,0.00,,,0.00,VWS V13.01,2013-06-19 01:03:00,
2013-06-18 20:08:00,80.2,64.6,29.95,North,2,2.2,2.2,59,0.00,,,0.00,VWS V13.01,2013-06-19 01:08:00,
2013-06-18 20:12:00,79.9,64.3,29.95,NE,37,3.1,3.1,59,0.00,,,0.00,VWS V13.01,2013-06-19 01:12:00,
2013-06-18 20:17:00,79.5,64.4,29.92,North,1,0.0,0.0,60,0.00,,,0.00,VWS V13.01,2013-06-19 01:17:00,
2013-06-18 20:22:00,79.1,64.1,29.92,North,1,0.0,0.0,60,0.00,,,0.00,VWS V13.01,2013-06-19 01:22:00,
2013-06-18 20:27:00,78.6,63.6,29.92,North,1,0.0,0.0,60,0.00,,,0.00,VWS V13.01,2013-06-19 01:27:00,
2013-06-18 20:32:00,78.1,63.5,29.92,North,1,0.0,0.0,61,0.00,,,0.00,VWS V13.01,2013-06-19 01:32:00,
2013-06-18 20:37:00,77.7,64.1,29.92,North,1,0.0,0.0,63,0.00,,,0.00,VWS V13.01,2013-06-19 01:37:00,
2013-06-18 20:42:00,77.0,63.4,29.92,North,1,0.0,0.0,63,0.00,,,0.00,VWS V13.01,2013-06-19 01:42:00,
2013-06-18 20:47:00,76.3,63.6,29.92,North,1,0.0,0.0,65,0.00,,,0.00,VWS V13.01,2013-06-19 01:47:00,
2013-06-18 20:52:00,75.7,63.1,29.92,North,1,0.0,0.0,65,0.00,,,0.00,VWS V13.01,2013-06-19 01:52:00,
2013-06-18 20:57:00,75.2,63.5,29.92,North,1,0.0,0.0,67,0.00,,,0.00,VWS V13.01,2013-06-19 01:57:00,
2013-06-18 21:02:00,74.8,63.6,29.95,North,1,0.0,0.0,68,0.00,,,0.00,VWS V13.01,2013-06-19 02:02:00,
2013-06-18 21:07:00,74.5,63.6,29.95,North,1,0.0,0.0,69,0.00,,,0.00,VWS V13.01,2013-06-19 02:07:00,
2013-06-18 21:12:00,74.3,63.5,29.95,North,1,0.0,0.0,69,0.00,,,0.00,VWS V13.01,2013-06-19 02:12:00,
2013-06-18 21:17:00,73.9,63.5,29.95,North,1,0.0,0.0,70,0.00,,,0.00,VWS V13.01,2013-06-19 02:17:00,
2013-06-18 21:22:00,73.6,63.6,29.95,North,1,0.0,0.0,71,0.00,,,0.00,VWS V13.01,2013-06-19 02:22:00,
2013-06-18 21:27:00,73.2,64.4,29.95,North,1,0.0,0.0,74,0.00,,,0.00,VWS V13.01,2013-06-19 02:27:00,
2013-06-18 21:32:00,72.8,66.7,29.95,North,1,0.0,0.0,81,0.00,,,0.00,VWS V13.01,2013-06-19 02:32:00,
2013-06-18 21:37:00,72.7,66.5,29.95,North,1,0.0,0.0,81,0.00,,,0.00,VWS V13.01,2013-06-19 02:37:00,
2013-06-18 21:42:00,72.3,66.2,29.95,North,1,0.0,0.0,81,0.00,,,0.00,VWS V13.01,2013-06-19 02:42:00,
2013-06-18 21:47:00,71.9,65.8,29.95,North,1,0.0,0.0,81,0.00,,,0.00,VWS V13.01,2013-06-19 02:47:00,
2013-06-18 21:52:00,71.6,65.8,29.95,North,1,0.0,0.0,82,0.00,,,0.00,VWS V13.01,2013-06-19 02:52:00,
2013-06-18 21:57:00,71.4,66.3,29.95,North,1,0.0,0.0,84,0.00,,,0.00,VWS V13.01,2013-06-19 02:57:00,
2013-06-18 22:02:00,71.0,65.6,29.95,North,1,0.0,0.0,83,0.00,,,0.00,VWS V13.01,2013-06-19 03:02:00,
2013-06-18 22:07:00,70.7,65.3,29.95,North,1,0.0,0.0,83,0.00,,,0.00,VWS V13.01,2013-06-19 03:07:00,
2013-06-18 22:12:00,70.3,64.9,29.95,North,1,0.0,0.0,83,0.00,,,0.00,VWS V13.01,2013-06-19 03:12:00,
2013-06-18 22:17:00,70.1,66.4,29.95,North,1,0.0,0.0,88,0.00,,,0.00,VWS V13.01,2013-06-19 03:17:00,
2013-06-18 22:22:00,69.8,66.7,29.95,North,1,0.0,0.0,90,0.00,,,0.00,VWS V13.01,2013-06-19 03:22:00,
2013-06-18 22:27:00,69.6,66.5,29.95,North,1,0.0,0.0,90,0.00,,,0.00,VWS V13.01,2013-06-19 03:27:00,
2013-06-18 22:32:00,69.4,67.0,29.95,North,1,0.0,0.0,92,0.00,,,0.00,VWS V13.01,2013-06-19 03:32:00,
2013-06-18 22:37:00,69.2,66.8,29.95,North,1,0.0,0.0,92,0.00,,,0.00,VWS V13.01,2013-06-19 03:37:00,
2013-06-18 22:42:00,69.2,66.8,29.95,North,1,0.0,0.0,92,0.00,,,0.00,VWS V13.01,2013-06-19 03:42:00,
2013-06-18 22:47:00,69.1,66.6,29.95,North,1,0.0,0.0,92,0.00,,,0.00,VWS V13.01,2013-06-19 03:47:00,
2013-06-18 22:52:00,68.7,66.0,29.95,North,1,0.0,0.0,91,0.00,,,0.00,VWS V13.01,2013-06-19 03:52:00,
2013-06-18 22:57:00,68.5,65.8,29.95,North,1,0.0,0.0,91,0.00,,,0.00,VWS V13.01,2013-06-19 03:57:00,
2013-06-18 23:01:00,68.5,65.5,29.95,North,1,0.0,0.0,90,0.00,,,0.00,VWS V13.01,2013-06-19 04:01:00,
2013-06-18 23:06:00,68.3,64.3,29.95,North,354,0.0,0.0,87,0.00,,,0.00,VWS V13.01,2013-06-19 04:06:00,
2013-06-18 23:11:00,68.2,64.8,29.95,NNE,26,2.2,2.2,89,0.00,,,0.00,VWS V13.01,2013-06-19 04:11:00,
2013-06-18 23:16:00,68.0,64.6,29.95,NNE,26,0.0,0.0,89,0.00,,,0.00,VWS V13.01,2013-06-19 04:16:00,
2013-06-18 23:21:00,67.6,63.9,29.95,NNE,26,0.0,0.0,88,0.00,,,0.00,VWS V13.01,2013-06-19 04:21:00,
2013-06-18 23:26:00,67.6,63.9,29.95,North,353,0.0,0.0,88,0.00,,,0.00,VWS V13.01,2013-06-19 04:26:00,
2013-06-18 23:31:00,67.4,63.8,29.95,North,353,0.0,0.0,88,0.00,,,0.00,VWS V13.01,2013-06-19 04:31:00,
2013-06-18 23:36:00,67.4,64.1,29.95,North,353,0.0,0.0,89,0.00,,,0.00,VWS V13.01,2013-06-19 04:36:00,
2013-06-18 23:41:00,67.3,64.9,29.95,North,357,0.0,0.0,92,0.00,,,0.00,VWS V13.01,2013-06-19 04:41:00,
2013-06-18 23:46:00,67.1,65.3,29.95,North,357,0.0,0.0,94,0.00,,,0.00,VWS V13.01,2013-06-19 04:46:00,
2013-06-18 23:51:00,66.9,65.1,29.95,North,357,0.0,0.0,94,0.00,,,0.00,VWS V13.01,2013-06-19 04:51:00,
2013-06-18 23:56:00,66.9,65.1,29.95,North,357,0.0,0.0,94,0.00,,,0.00,VWS V13.01,2013-06-19 04:56:00,